031  
ASUS43 KMPX 270401  
RWRMN  
WEATHER ROUNDUP FOR MINNESOTA  
NATIONAL WEATHER SERVICE TWIN CITIES/CHANHASSEN MN  
1000 PM CST THU FEB 26 2015  
 
NOTE: "FAIR" INDICATES FEW OR NO CLOUDS BELOW 12,000 FEET WITH NO  
SIGNIFICANT WEATHER AND/OR S TO VISIBILITY
. N/A MEANS  
CURRENT SKY AND/OR WEATHER CONDITIONS ARE NOT AVAILABLE.  
 
MNZ060>063-068>070-270500-  
TWIN CITIES METRO  
 
CITY SKY/WX TMP DP RH WIND PRES REMARKS
 
TWIN CITIES CLEAR 3 -8 60 W8 30.49R WCI -10  
ST PAUL CLEAR 5 -8 55 NW10 30.50S WCI -10  
CRYSTAL CLEAR 4 -8 57 W7 30.48R WCI -8  
BLAINE FAIR 1 -8 66 W6 30.47S WCI -10  
EDEN PRAIRIE CLEAR -1 -9 68 W6 30.49R WCI -13  
SOUTH ST PAUL CLEAR 6 -8 53 W3 30.49R  
LAKE ELMO FAIR 3 -8 60 W5 30.48S WCI -6  

 
MNZ001>005-007-008-013>017-022>024-027-028-270500-  
NORTHWEST MINNESOTA  
 
CITY SKY/WX TMP DP RH WIND PRES REMARKS
 
BEMIDJI CLEAR -7 -11 82 W7 30.41S WCI -22  
HALLOCK CLEAR -8 -15 71 SW3 30.47S  
ROSEAU CLEAR 0 -8 71 W6 30.43S WCI -12  
WARROAD CLEAR -4 -9 77 W7 30.41F WCI -18  
THIEF RVR FALL PTCLDY -6 -17 59 CALM 30.45S  
CROOKSTON FAIR -8 -13 77 W6 30.50S WCI -21  
FOSSTON CLEAR -13 -18 77 CALM 30.45S  
DETROIT LAKES CLEAR 0 -6 78 W5 30.46S WCI -10  
MOORHEAD FAIR 0 -6 78 W7 30.52S WCI -13  
PARK RAPIDS CLEAR -10 -15 78 W6 30.41F WCI -23  
MAHNOMEN FAIR -4 -8 84 W5 30.45S WCI -14  

 
MNZ006-009>011-018-025>026-270500-  
NORTH CENTRAL MINNESOTA  
 
CITY SKY/WX TMP DP RH WIND PRES REMARKS
 
BAUDETTE CLEAR -5 -12 72 NW8 30.38S WCI -20  
FLAG ISLAND CLEAR -2 -9 71 W6 30.39F WCI -14  
INTL FALLS CLEAR -6 -14 68 W5 30.38R WCI -17  
WASKISH FAIR -6 -11 77 SW8 30.41S WCI -21  
BIG FORK CLEAR -6 -13 71 CALM 30.39S  
LONGVILLE CLEAR -9 -15 77 CALM 30.42S  
GRAND RAPIDS CLEAR -2 -11 65 W9 30.38R WCI -18  
CRANE LAKE CLEAR -18 -24 76 CALM 30.40R  
ORR CLEAR -8 -18 59 CALM 30.34R  
COOK CLEAR -9 -17 70 CALM 30.37S  
WALKER FAIR -7 -13 72 SW3 30.41F  

 
MNZ012-019>021-037-270500-  
NORTHEAST MINNESOTA  
 
CITY SKY/WX TMP DP RH WIND PRES REMARKS
 
DULUTH CLEAR 0 -14 51 NW10 30.35R WCI -16  
ELY CLEAR -6 -17 59 NW3 30.33S  
HIBBING CLEAR -2 -14 56 W6 30.37S WCI -14  
EVELETH CLEAR 0 -13 55 W6 30.37S WCI -12  
DULUTH HARBOR CLEAR 5 -11 47 CALM 30.46R  
TWO HARBORS CLEAR 3 -11 51 NW5 30.35R WCI -6  
SILVER BAY CLEAR 3 -13 47 NW3 30.33R  
GRAND MARAIS N/A 3 -11 52 SW8 30.36S WCI -10  
G MARAIS ARPRT PTCLDY -6 -17 59 NW9 30.23R WCI -22  

 
MNZ029>031-032-039>041-046>048-054>057-064-270500-  
WEST CENTRAL MINNESOTA  
 
CITY SKY/WX TMP DP RH WIND PRES REMARKS
 
FERGUS FALLS CLEAR -2 -9 71 NW8 30.54S WCI -17  
WHEATON CLEAR -8 -11 84 W8 30.55S WCI -23  
MORRIS CLEAR -6 -11 77 NW8 30.50S WCI -21  
ALEXANDRIA CLEAR -4 -10 75 NW7 30.46R WCI -18  
ELBOW LAKE FAIR -6 -10 83 W7 30.49S WCI -21  
WADENA CLEAR -6 -9 84 W6 30.44F WCI -18  
GLENWOOD CLEAR -6 -9 84 NW6 30.47S WCI -18  
APPLETON CLEAR -8 -13 77 W7 30.54R WCI -22  
BENSON CLEAR -8 -11 84 CALM 30.51S  
ORTONVILLE CLEAR -4 -11 71 W7 30.53R WCI -18  
MADISON FAIR -6 -11 77 W7 30.54S WCI -20  
WILLMAR FAIR -2 -9 71 NW7 30.51R WCI -16  

 
MNZ033>034-036-042>043-049>051-058-059-270500-  
CENTRAL MINNESOTA  
 
CITY SKY/WX TMP DP RH WIND PRES REMARKS
 
ST CLOUD CLEAR 1 -9 62 NW10 30.47R WCI -15  
SAUK CENTRE FAIR -3 -9 77 NW5 30.48R WCI -14  
PAYNESVILLE CLEAR -4 -10 77 W5 30.48S WCI -15  
AITKIN CLEAR 0 -13 55 NW5 30.42S WCI -10  
PINE RIVER CLEAR -6 -13 71 CALM 30.46R  
BRAINERD CLEAR -1 -12 59 NW6 30.45R WCI -13  
STAPLES CLEAR -9 -15 77 W5 30.45S WCI -21  
LONG PRAIRIE FAIR -4 -9 77 W3 30.46S  
LITTLE FALLS CLEAR 0 -9 65 CALM 30.48R  
LITCHFIELD CLEAR 0 -8 71 CALM 30.49S  
BUFFALO CLEAR 1 -8 66 W3 30.50R  
MAPLE LAKE FAIR 2 -5 71 W6 30.49R WCI -9  

 
MNZ037-044-045-052-053-270500-  
EAST CENTRAL MINNESOTA  
 
CITY SKY/WX TMP DP RH WIND PRES REMARKS
 
PRINCETON CLEAR 0 -9 65 W7 30.46R WCI -13  
MORA CLEAR -8 -15 71 CALM 30.47R  
CAMBRIDGE CLEAR -6 -15 65 CALM 30.45S  
RUSH CITY MOCLDY -2 -12 63 W3 30.46S  
MOOSE LAKE CLEAR 1 -13 51 CALM 30.41S  
HINCKLEY FAIR 1 -9 60 NW3 30.45R  
CLOQUET CLEAR 0 -15 50 NW9 30.38R WCI -16  
MCGREGOR CLEAR 0 -11 60 W5 30.43R WCI -10  

 
MNZ071>073-080-081-089-090-097-098-270500-  
SOUTHWEST MINNESOTA  
 
CITY SKY/WX TMP DP RH WIND PRES REMARKS
 
MONTEVIDEO CLEAR -2 -9 71 N7 30.54S WCI -16  
GRANITE FALLS CLEAR -5 -10 77 W9 30.55R WCI -21  
CANBY CLEAR -4 -11 74 W6 30.55R WCI -17  
MARSHALL CLEAR -8 -15 71 W9 30.53S WCI -25  
REDWOOD FALLS CLEAR -4 -10 75 W9 30.53R WCI -20  
OLIVIA CLEAR -4 -8 84 W6 30.52R WCI -16  
PIPESTONE CLEAR -6 -9 84 N8 30.47S WCI -21  
WINDOM CLEAR -9 -13 84 NW8 30.49S WCI -26  
WORTHINGTON CLEAR 21 -20 15 NW9 30.50S WCI 11  
JACKSON CLEAR -6 -11 77 NW9 30.48S WCI -22  
TRACY CLEAR -4 -9 78 NW8 30.51S WCI -19  
SLAYTON CLEAR -10 -16 74 CALM 30.49R  

 
MNZ065>067-074>077-082>085-091>093-270500-  
SOUTH CENTRAL MINNESOTA  
 
CITY SKY/WX TMP DP RH WIND PRES REMARKS
 
MANKATO FAIR -2 N/A N/A W8 30.50R WCI -17  
NEW ULM CLEAR -8 -13 77 W8 30.52R WCI -23  
ST JAMES CLEAR -2 -9 71 W10 30.53R WCI -19  
FAIRMONT CLEAR -4 -11 71 NW9 30.49R WCI -20  
GLENCOE CLEAR -1 -7 75 W3 30.50R  
FARIBAULT CLEAR -2 -9 71 W7 30.48S WCI -16  
OWATONNA CLEAR -8 -13 77 W3 30.48R  
WASECA CLEAR -9 -15 77 W7 30.50R WCI -24  
ALBERT LEA CLEAR -6 -9 84 W5 30.48R WCI -17  

 
MNZ078>079-086>088-094>096-270500-  
SOUTHEAST MINNESOTA  
 
CITY SKY/WX TMP DP RH WIND PRES REMARKS
 
ROCHESTER CLEAR -9 -13 83 W12 30.44R WCI -28  
RED WING FAIR -6 -13 71 CALM 30.48R  
STANTON CLEAR -1 -8 71 W8 30.48R WCI -16  
DODGE CENTER PTCLDY -2 -8 78 W12 30.44R WCI -20  
WINONA CLEAR -4 -9 77 CALM 30.50R  
AUSTIN CLEAR -4 -9 77 W7 30.47R WCI -18  
PRESTON FAIR -6 -11 77 NW9 30.45R WCI -22  

 
ABBREVIATIONS USED IN REMARKS  
TC - TEMPERATURES IN CELSIUS  
WCI - WIND CHILL INDEX  
HX - HEAT INDEX  
VSB - VISIBILITY  

 
 
CLICK HERE TO GO TO PREVIOUS BULLETINS.

The Nexlab MN Page Main Text Page